Weather past 2 weeks in Willemstad, Curaçao

Now
86 °F

Scattered clouds.


Feels Like: 95 °F
Forecast: 80 / 87 °F
Wind: 17 mph from East

Location: Hato Airport - Curacao

Current Time: Jul 4, 2015 at 12:07:12 PM

Latest Report: Jul 4, 2015 at 11:00 AM


Visibility: N/A

Pressure: 29.95 "Hg

Humidity: 70%

Dew point: 75 °F

Location of WillemstadLocation

Historic Weather in Willemstad — Graph

°F

Willemstad temperature yesterday

Maximum temperature yesterday: 88 °F (at 12:00 PM)
Minimum temperature yesterday: 79 °F (at 4:00 AM)
Average temperature yesterday: 83 °F

Past Weeks' High & Low Weather Summary

 TemperatureHumidityPressure
High88 °F (Jun 19, 11:00 AM)89% (Jun 22, 7:00 AM)30.04 "Hg (Jun 22, 7:00 AM)
Low79 °F (Jun 21, 6:00 AM)59% (Jun 30, 4:00 PM)29.86 "Hg (Jul 3, 4:00 PM)
Average83 °F77%29.97 "Hg
* Reported Jun 19 11:00 AM — Jul 4 11:00 AM, Willemstad, Weather by CustomWeather, © 2015

Note: Actual official high and low records may vary slightly from our data, if they occured in-between our weather recording intervals... More about our weather records

Advertising

Willemstad weather history for previous 24 hours

 ConditionsComfort  
Time TempWeatherWind HumidityBarometerVisibility
11:00 AM
Sat, Jul 4
86 °FScattered clouds.17 mph70%29.95 "HgN/A
10:00 AM86 °FScattered clouds.15 mph75%29.98 "HgN/A
9:00 AM82 °FPassing clouds.13 mph79%29.98 "HgN/A
8:00 AM82 °FPartly sunny.13 mph79%29.95 "HgN/A
7:00 AM81 °FPartly sunny.10 mph84%29.95 "HgN/A
6:00 AM81 °FPassing clouds.10 mph84%29.92 "HgN/A
5:00 AM81 °FPassing clouds.12 mph84%29.92 "HgN/A
4:00 AM81 °FPassing clouds.12 mph84%29.92 "HgN/A
3:00 AM81 °FPassing clouds.10 mph84%29.89 "HgN/A
2:00 AM81 °FPassing clouds.10 mph84%29.89 "HgN/A
12:00 AM81 °FPassing clouds.12 mph84%29.92 "HgN/A
11:00 PM
Fri, Jul 3
81 °FPassing clouds.12 mph84%29.92 "HgN/A
10:00 PM81 °FPassing clouds.13 mph84%29.92 "HgN/A
9:00 PM81 °FPassing clouds.12 mph84%29.89 "HgN/A
8:00 PM81 °FClear.13 mph84%29.86 "Hg10 mi
7:00 PM82 °FPassing clouds.13 mph79%29.86 "HgN/A
6:00 PM84 °FPassing clouds.13 mph74%29.86 "HgN/A
5:00 PM86 °FPassing clouds.16 mph66%29.86 "HgN/A
4:00 PM86 °FPassing clouds.17 mph66%29.86 "HgN/A
3:00 PM86 °FPassing clouds.20 mph66%29.89 "HgN/A
2:00 PM88 °FPassing clouds.18 mph62%29.92 "HgN/A
1:00 PM88 °FScattered clouds.20 mph59%29.95 "HgN/A
12:00 PM88 °FScattered clouds.18 mph62%29.98 "HgN/A
Weather by CustomWeather, © 2015

See weather overviewHow to use our weather pages